Location: ??????
(55.2000°N, 38.3000°E)
Time: 09:15:01
(UTC+00:00)

IRS-1D - Pass Details

Date: 15 November 2025
Orbit: 736 x 811 km, 98.8° (Epoch: 14 December)

Event Time Altitude Azimuth Distance (km) Brightness Sun altitude
Rises 02:09:10 0° 19° (NNE) 3,202 7.0 -23.9°
Reaches altitude 10° 02:11:33 10° 25° (NNE) 2,266 6.2 -23.6°
Maximum altitude 02:16:21 48° 100° (E) 968 4.4 -22.9°
Drops below altitude 10° 02:21:06 10° 175° (S) 2,239 6.0 -22.2°
Sets 02:23:26 0° 181° (S) 3,158 6.7 -21.9°
